sat.trackr.live / text

‹ back to catalog

STARLINK-3878

NORAD 52479 · 2022-049AE

PAYLOAD ACTIVE UNKNOWN

§ Identity

Operator
Country
US
Launch date
2022-05-06
Launch site
AFETR
Launch vehicle
Mass (kg)
RCS (m²)

Purposes: comms

External: N2YO · Heavens-Above · Gunter

§ Orbital elements

Epoch: 2026-09-19T13:29:42.123840Z

Period
94.01 min
Inclination
53.1605°
Eccentricity
0.0001158
Mean motion
15.31697565 rev/d
Perigee alt
470.0 km
Apogee alt
471.5 km
Semi-major
6,848.9 km
B*
1.1957e-5
RAAN
254.2490°
Arg perigee
87.5503°
Mean anomaly
272.5631°
Rev number
24,295

§ Raw data

STARLINK-38781 52479U 22049AE  26262.56229310  .00000006  00000+0  11957-4 0  99922 52479  53.1605 254.2490 0001158  87.5503 272.5631 15.31697565242954

JSON: /api/v1/satellites/52479 · /tle

For live sub-satellite position, see the globe view (requires WebGL).

§ Visibility from observer

Set your observer location to see the next 7 days of passes ≥ 10°. The values pass through the URL so the page stays shareable.

No JS? Fill the form by hand. The geolocation button needs JavaScript.